User: anonymous   Login
Location: Darlington Observatory
(36.4817°N, 105.8156°W)
Time: 09:16:54
(UTC-07:00)
Language:

NOSS 3-3 (A) - Orbit

View from above orbital plane
View from above orbital plane
View from above satellite
View from above satellite

Ground track
Ground track

The orbit data is extracted from the following two-line orbital elements,

1 28537U 05004A   18053.79639712 0.00000000  00000-0  00000-0 0    08
2 28537  63.4321 269.5718 0291214 357.8207   2.1793 13.40749717    00
Epoch (UTC): 22 February 2018 19:06:48
Eccentricity: 0.0291214
inclination: 63.4321°
perigee height: 888 km
apogee height: 1324 km
right ascension of ascending node: 269.5718°
argument of perigee: 357.8207°
revolutions per day: 13.40749717
mean anomaly at epoch: 2.1793°
orbit number at epoch: 0

The dashed part of the orbit path shows where the satellite is in the earth's shadow,  

DLR